Wilkerson Pass, CO

11:48 AM MDT on October 23, 2017 (GMT -0600)
Wilkerson Pass

Weather History for K4BM - May, 2012

Change the Weather History Date:

Monday, May 7, 2012

  Actual Average (KAFF) Record (KAFF)
Temperature  
Mean Temperature 27 °F -  
Max Temperature 28 °F 62 °F 80 °F (2011)
Min Temperature 26 °F 35 °F 23 °F (1999)
Degree Days  
Heating Degree Days 38    
Moisture  
Dew Point 27 °F    
Average Humidity 95    
Maximum Humidity 100    
Minimum Humidity 93    
Precipitation  
Precipitation 0.00 in - - ()
Sea Level Pressure  
Sea Level Pressure 30.34 in    
Wind  
Wind Speed 7 mph (East)    
Max Wind Speed 15 mph    
Max Gust Speed 25 mph    
Averages and records for this station are not official NWS values.
T = Trace of Precipitation, MM = Missing Value Source: NWS Daily Summary

Daily Weather History Graph

Daily Weather History Graph

Search for Another Location

Airport or City:

Trip Planner

Search our weather history database for the weather conditions in past years. The results will help you decide how hot, cold, wet, or windy it might be!

Date:

Astronomy

May. 07, 2012 Rise Set
Actual Time 5:56 AM MDT 8:01 PM MDT
Civil Twilight 5:27 AM MDT 8:30 PM MDT
Nautical Twilight 4:51 AM MDT 9:06 PM MDT
Astronomical Twilight 4:12 AM MDT 9:45 PM MDT
Moon 10:15 PM MDT (5/7) 7:05 AM MDT (5/7)
Length of Visible Light 15h 03m
Length of Day
14h 04m
Waning Gibbous, 96% of the Moon is Illuminated
May 7
Waning Gibbous
May 12
Last Quarter
May 20
New
May 28
First Quarter
Jun 4
Full

Hourly Weather History & Observations

Time (MDT) Temp. Windchill Dew Point Humidity Pressure Visibility Wind Dir Wind Speed Gust Speed Precip Events Conditions
12:11 AM 28.4 °F 18.5 °F 26.6 °F 93% 30.36 in 0.2 mi ENE 11.5 mph 17.3 mph N/A Snow Light Snow
12:31 AM - - - N/A% 30.36 in 0.5 mi NE 10.4 mph 16.1 mph N/A   Unknown
12:51 AM - - - N/A% 30.35 in 0.5 mi NE 12.7 mph 18.4 mph N/A   Unknown
1:11 AM - - - N/A% 30.34 in 0.5 mi ENE 11.5 mph 18.4 mph N/A   Unknown
1:31 AM - - - N/A% 30.33 in 0.5 mi ENE 15.0 mph 25.3 mph N/A   Unknown
1:51 AM - - - N/A% 30.33 in 0.5 mi ENE 11.5 mph 20.7 mph N/A   Unknown
2:11 AM - - - N/A% 30.33 in 0.5 mi East 9.2 mph 18.4 mph N/A   Unknown
2:31 AM - - - N/A% 30.33 in 0.5 mi East 9.2 mph 16.1 mph N/A   Unknown
2:51 AM - - - N/A% 30.33 in 0.5 mi ENE 10.4 mph 18.4 mph N/A   Unknown
3:11 AM - - - N/A% 30.33 in 0.5 mi East 8.1 mph - N/A   Unknown
3:31 AM - - - N/A% 30.33 in 0.2 mi East 9.2 mph - N/A   Unknown
3:51 AM - - - N/A% 30.34 in 0.5 mi ESE 4.6 mph - N/A   Unknown
4:11 AM - - - N/A% 30.33 in 0.8 mi East 5.8 mph - N/A   Unknown
4:32 AM - - - N/A% 30.33 in 0.8 mi ENE 4.6 mph - N/A   Unknown
4:51 AM - - - N/A% 30.33 in 0.8 mi ENE 5.8 mph - N/A   Unknown
5:12 AM - - - N/A% 30.33 in 0.5 mi ENE 5.8 mph - N/A   Unknown
5:32 AM - - - N/A% 30.33 in 0.2 mi ENE 3.5 mph - N/A   Unknown
5:52 AM - - - N/A% 30.33 in 0.2 mi SSE 4.6 mph - N/A Fog Fog
6:12 AM - - - N/A% 30.33 in 0.2 mi SE 3.5 mph - N/A   Unknown
6:32 AM - - - N/A% 30.34 in 0.2 mi South 3.5 mph - N/A   Unknown
6:52 AM - - - N/A% 30.34 in 0.2 mi South 4.6 mph - N/A   Unknown
7:12 AM - - - N/A% 30.34 in 0.2 mi Calm Calm - N/A Fog Fog
7:31 AM - - - N/A% 30.34 in 0.2 mi ESE 5.8 mph - N/A   Unknown
7:51 AM - - - N/A% 30.33 in 0.2 mi NE 4.6 mph - N/A   Unknown
8:11 AM - - - N/A% 30.35 in 0.2 mi East 3.5 mph - N/A   Unknown
8:31 AM - - - N/A% 30.35 in 0.2 mi ENE 4.6 mph - N/A Thunderstorm Unknown
8:51 AM - - - N/A% 30.36 in 0.5 mi Calm Calm - N/A   Unknown
9:11 AM - - - N/A% 30.35 in 0.2 mi East 3.5 mph - N/A Thunderstorm Unknown
9:31 AM - - - N/A% 30.35 in 0.2 mi NE 3.5 mph - N/A   Unknown
9:51 AM - - - N/A% 30.35 in 0.2 mi Calm Calm - N/A Thunderstorm Unknown
10:11 AM - - - N/A% 30.37 in 0.2 mi Calm Calm - N/A   Unknown
10:31 AM - - - N/A% 30.38 in 0.5 mi SSW 4.6 mph - N/A   Unknown
10:51 AM - - - N/A% 30.36 in 0.2 mi ENE 4.6 mph - N/A   Unknown
11:11 AM - - - N/A% 30.36 in 0.2 mi SE 3.5 mph - N/A   Unknown
11:31 AM - - - N/A% 30.36 in 1.0 mi Calm Calm - N/A   Unknown
11:51 AM - - - N/A% 30.36 in 0.5 mi Calm Calm - N/A   Unknown
12:11 PM - - - N/A% 30.36 in 0.8 mi Calm Calm - N/A   Unknown
12:31 PM - - - N/A% 30.35 in 0.8 mi ESE 3.5 mph - N/A   Unknown
12:51 PM - - - N/A% 30.35 in 0.8 mi SE 4.6 mph - N/A   Unknown
1:11 PM - - - N/A% 30.34 in 0.8 mi Calm Calm - N/A   Unknown
1:24 PM - - - N/A% 30.33 in 0.8 mi SE 3.5 mph - N/A   Overcast
1:51 PM - - - N/A% 30.34 in 1.2 mi South 3.5 mph - N/A Rain Light Rain
2:11 PM - - - N/A% 30.33 in 1.5 mi South 4.6 mph - N/A   Unknown
2:31 PM 28.4 °F 23.3 °F 26.6 °F 93% 30.33 in 1.0 mi SSW 4.6 mph - N/A Snow Light Snow
2:51 PM 28.4 °F 24.6 °F 26.6 °F 93% 30.33 in 0.2 mi SW 3.5 mph - N/A Snow Snow
3:11 PM 28.4 °F 24.6 °F 26.6 °F 93% 30.32 in 0.2 mi SSW 3.5 mph - N/A Snow Snow
3:31 PM 28.4 °F - 26.6 °F 93% 30.32 in 0.5 mi Calm Calm - N/A Snow Light Snow
3:51 PM 26.6 °F - 26.6 °F 100% 30.31 in 0.5 mi Calm Calm - N/A Snow Snow
4:02 PM 26.6 °F - 26.6 °F 100% 30.31 in 0.5 mi Calm Calm - N/A   Overcast